Details From PABT - Bettles
To PANI - Aniak
Flight Number -
Tags Decoded
Created
Modified
Stats Distance 451 nm / 835 km
Max Altitude 0 ft / 0 m
Waypoints 6
Social Downloads 1
Likes 0
Share VATSIM

Download

Looking for another format? Having issues loading an existing format? Contact us
Advertisement - Login to hide

Notes

Decoded

Route

PABT MHM VTR ANI NUBDY PANI

ID Type Via Altitude Latitude Longitude Leg Dist Tot Dist Heading (true) Name
O PABT APT - 0 ft / 0 m 66.90794˚ -151.53869˚ - 0 nm - -
MHM NDB - 0 ft / 0 m 63.88389˚ -152.31650˚ 182 nm 182 nm 186° / 186° MINCHUMINA NDB
VTR NDB - 0 ft / 0 m 62.94683˚ -155.55725˚ 103 nm 286 nm 239° / 236° TAKOTNA RIVER NDB
ANI NDB - 0 ft / 0 m 61.59017˚ -159.59792˚ 139 nm 425 nm 236° / 232° ANIAK NDB
NUBDY FIX - 0 ft / 0 m 61.78981˚ -159.70725˚ 12 nm 437 nm 345° / 345° -
O PANI APT - 0 ft / 0 m 61.58585˚ -159.55777˚ 12 nm 450 nm 161° / 161° -

Altitude Profile

Advertisement - Login to hide

Weather


0- 5 10 15 20 25 30 35+ Temperature / ° C

Clouds and Precipitation
Forecast for 2018-05-23 12:00 UTC. Updated 40 minutes ago

Ground ~20,000 ft ~40,000 ft Winds

PABT

Details ICAO PABT (BTT)
Name BETTLES
Region USA (Alaska)
Timezone America/Anchorage (UTC-8.0)
Stats Elevation 644 ft / 196 m (AMSL)
Location 66.913940° -151.529042°
Runways 1
Magnetic Variation 16.239° E

METAR

PABT 230953Z VRB05KT 10SM FEW017 BKN041 OVC055 08/06 A2964 RMK AO2 RAE00B24E33 SLP047 P0000 T00780061

Decode

TAF

TAF PABT 230520Z 2306/2406 32004KT 5SM -SHRA BR FEW005 BKN020 OVC030 FM231000 26005KT P6SM VCSH FEW015 BKN030 FM231700 VRB03KT 5SM -SHRA SCT030 BKN040

Decode

Departure Runways

ID Width Length Bearing (true) Bearing (mag) Surface Threshold Offset Overrun Length
01 150 ft / 46 m 5,174 ft / 1,577 m 32.24° 16.00° Gravel 0 ft / 0 m 0 ft / 0 m
19 150 ft / 46 m 5,174 ft / 1,577 m 212.26° 196.02° Gravel 0 ft / 0 m 0 ft / 0 m

PANI

Details ICAO PANI (ANI)
Name ANIAK
Region USA (Alaska)
Timezone America/Anchorage (UTC-8.0)
Stats Elevation 88 ft / 27 m (AMSL)
Location 61.581597° -159.543045°
Runways 1
Magnetic Variation 12.410° E

METAR

PANI 230956Z AUTO 16003KT 10SM CLR 09/07 A2966 RMK AO2 SLP012 T00890067

Decode

TAF

Not found

Destination Runways

ID Width Length Bearing (true) Bearing (mag) Surface Threshold Offset Overrun Length
10 151 ft / 46 m 5,982 ft / 1,823 m 121.22° 108.81° Asphalt 0 ft / 0 m 0 ft / 0 m
28 151 ft / 46 m 5,982 ft / 1,823 m 301.24° 288.83° Asphalt 0 ft / 0 m 0 ft / 0 m

Approach Navaids

Runway Type Ident Frequency Range Bearing (true) Bearing (mag) Slope Elevation
10 Localiser IANI 109.70 MHz 18 nm / 33 km 121.25° 108.84° - 88 ft / 27 m (AMSL)
10 Glidescope IANI 109.70 MHz 10 nm / 19 km 121.23° 108.82° 3.00° 88 ft / 27 m (AMSL)
10 DME IANI 109.70 MHz 18 nm / 33 km - - - 88 ft / 27 m (AMSL)

Popular Alternatives